Regional Weather Roundup
Issued by NWS Midland/Odessa, TX

Skip options and go directly to product.
Home | Oldest Version | Previous Version | Current Version | All | Graphics & Text | Save Text | Print | Product List | Glossary On

Skip product version selection by date and time.   
947
ASUS44 KMAF 260410
RWRMAF
MIDLAND AREA WEATHER ROUNDUP
NATIONAL WEATHER SERVICE MIDLAND TX
1100 PM CDT MON JUL 25 2016

...IN SOUTHWEST TEXAS AND SOUTHEAST NEW MEXICO...

CITY           SKY/WX    TMP DP  RH WIND       PRES   REMARKS
ALPINE         CLEAR     83  54  35 SE13      30.16R
ANDREWS        FAIR      85  59  40 E7        30.05R
ARTESIA        MOCLDY    88  61  40 NE18      30.06R
BIG SPRING     PTCLDY    87  60  40 NE8       30.03R
CARLSBAD       CLOUDY    89  52  28 SE6       30.01R
DRYDEN           N/A     92  60  34 SE9       29.93R
FORT STOCKTON  PTCLDY    88  56  33 E9        30.00R
GUAD PASS      CLEAR     81  50  33 E20       30.19R
HOBBS          CLEAR     84  57  39 E14G22    30.09R
MARFA          CLEAR     77  52  41 E8        30.15R
MIDLAND AIRPK  PTCLDY    90  58  33 E7        30.03R
MIDLAND INTL   PTCLDY    91  57  31 E10       30.02R
ODESSA         CLEAR     91  56  30 E12       30.03R
PECOS          CLOUDY    90  54  29 E7        29.97R
PRESIDIO       FAIR      93  55  27 NE15G22   29.95R
SEMINOLE       CLEAR     84  56  38 E9        30.08R
SNYDER           N/A     88  62  42 CALM      30.01R
WINK           CLEAR     89  55  31 E8        29.98R
$$
...OTHER STATIONS IN TEXAS...

CITY           SKY/WX    TMP DP  RH WIND       PRES   REMARKS
ABILENE        CLEAR     84  67  56 SE16      30.00R
AMARILLO       CLOUDY    77  58  51 W12       30.16R
AUSTIN         LGT RAIN  78  76  93 S5        29.93F
BROWNSVILLE    PTCLDY    83  78  85 SE9       29.89S
CORPUS CHRISTI MOCLDY    83  78  85 SE9       29.90R
DALLAS FTW     CLOUDY    81  72  74 SE7       29.94R
DEL RIO        CLEAR     93  62  35 E8        29.87R
EL PASO        PTCLDY    92  47  21 E12       30.02R
HOUSTON INT    CLOUDY    81  73  76 W3        29.91S
LUBBOCK        CLOUDY    79  63  57 E3        30.09R
SAN ANGELO     CLEAR     86  64  47 SE20G25   29.97R
SAN ANTONIO    TSTM      75  70  84 VRB6      29.97F
WACO           CLOUDY    75  70  84 SW5       29.95S
WICHITA FALLS  NOT AVBL
$$
...OTHER LOCATIONS IN NEW MEXICO...

CITY           SKY/WX    TMP DP  RH WIND       PRES   REMARKS
ALAMAGORDO     CLEAR     82  55  39 CALM      30.06R
ALBUQUERQUE    MOCLDY    78  54  43 N14       30.23S
CANNON AFB     RAIN      68  65  92 NW14      30.26R
CLOVIS         CLOUDY    70  61  73 NW15      30.24R
HOLLOMAN AFB   MOCLDY    83  60  46 SE12      30.04R
ROSWELL        LGT RAIN  79  61  53 NE22      30.11R
RUIDOSO          N/A     68  57  68 E18G31    30.37R
SANTA FE       CLOUDY    70  55  59 SW8       30.31R
TRUTH OR CONSE CLOUDY    86  50  28 W16       30.13R
TUCUMCARI      LGT RAIN  71  66  84 W5        30.25R
$$

USA.gov is the U.S. government's official web portal to all federal, state and local government web resources and services.